Stations météo

Publicité
Kleine Brogel, Belgique (6479): Température de l'air & dewpoint: 14.02.2018 01:00:00 - 20.02.2018 01:00:00 (CET)Kleine Brogel, Belgique (6479): Vitesse du vent & gusts: 14.02.2018 01:00:00 - 20.02.2018 01:00:00 (CET)Kleine Brogel, Belgique (6479): Direction du vent: 14.02.2018 01:00:00 - 20.02.2018 01:00:00 (CET)Kleine Brogel, Belgique (6479): reduced air pressure: 14.02.2018 01:00:00 - 20.02.2018 01:00:00 (CET)Kleine Brogel, Belgique (6479): visibility: 14.02.2018 01:00:00 - 20.02.2018 01:00:00 (CET)
Date & Time tt [°C] td [°C] ff [km/h] ff [knt] fx [km/h] fx [knt] dd ppp [hPa] vv [km]
20.02.2018 01:00:00 - - - - - - - - -
20.02.2018 00:00:00 1,2 -1,3 4 2 4 2 N 1018,2 8
19.02.2018 23:00:00 1,4 -1,3 4 2 4 2 N 1018,1 9
19.02.2018 22:00:00 1,3 -1,3 4 2 - - N 1018,2 15
19.02.2018 21:00:00 1,3 -1,1 4 2 4 2 N 1018,2 10
19.02.2018 20:00:00 1,2 -1,2 4 2 4 2 N 1018,5 10
19.02.2018 19:00:00 1,6 -1,4 4 2 - - N 1018,2 12
19.02.2018 18:00:00 2,7 -1,5 4 2 7 4 N 1018,2 15
19.02.2018 17:00:00 3,4 -1,3 4 2 11 6 N 1018,3 15
19.02.2018 16:00:00 3,7 -1,6 7 4 - - S 1018,7 15
19.02.2018 15:00:00 3,5 -1,6 7 4 14 8 S 1019,1 15
19.02.2018 14:00:00 2,9 -2,0 7 4 14 8 S 1019,5 14
19.02.2018 13:00:00 2,5 -1,8 7 4 - - SSW 1020,0 12
19.02.2018 12:00:00 1,7 -1,6 7 4 14 8 S 1020,3 12
19.02.2018 11:00:00 0,8 -1,7 4 2 14 8 N 1020,7 12
19.02.2018 10:00:00 0,2 -1,8 4 2 - - N 1021,0 9
19.02.2018 09:00:00 -0,4 -2,4 4 2 11 6 N 1021,2 6
19.02.2018 08:00:00 -0,6 -2,5 4 2 7 4 N 1021,6 6
19.02.2018 07:00:00 -1,0 -2,4 4 2 - - N 1021,3 8
19.02.2018 06:00:00 -1,1 -2,4 4 2 7 4 N 1021,6 8
19.02.2018 05:00:00 -1,0 -2,5 4 2 11 6 N 1022,1 -
19.02.2018 04:00:00 -2,0 -3,5 4 2 - - N 1022,2 -
19.02.2018 03:00:00 -1,2 -3,1 4 2 11 6 N 1023,0 -
19.02.2018 02:00:00 -0,9 -3,0 7 4 11 6 S 1023,2 -
19.02.2018 01:00:00 -1,0 -3,6 4 2 - - N 1023,7 -
19.02.2018 00:00:00 -0,6 -3,5 4 2 11 6 N 1024,0 -
18.02.2018 23:00:00 -1,0 -2,9 4 2 7 4 N 1024,0 -
18.02.2018 22:00:00 -1,7 -2,4 4 2 - - N 1024,4 -
18.02.2018 21:00:00 -1,1 -2,6 4 2 4 2 N 1024,9 2,5
18.02.2018 20:00:00 -0,4 -2,1 4 2 7 4 N 1024,7 11
18.02.2018 19:00:00 0,8 -1,7 4 2 - - N 1025,0 13
18.02.2018 18:00:00 3,7 -0,9 4 2 7 4 N 1025,0 17
18.02.2018 17:00:00 6,5 -0,5 4 2 18 10 N 1025,0 20
18.02.2018 16:00:00 7,4 0,0 7 4 - - S 1025,2 20
18.02.2018 15:00:00 7,3 0,3 7 4 14 8 S 1025,5 19
18.02.2018 14:00:00 7,6 1,2 11 6 18 10 WSW 1026,0 16
18.02.2018 13:00:00 6,2 1,3 7 4 - - SSW 1026,5 17
18.02.2018 12:00:00 5,1 1,3 11 6 18 10 SSW 1027,0 12
18.02.2018 11:00:00 3,5 0,6 11 6 14 8 SSW 1027,0 11
18.02.2018 10:00:00 1,7 0,2 7 4 - - SSW 1026,7 8
18.02.2018 09:00:00 -0,3 -1,1 4 2 7 4 N 1026,5 6
18.02.2018 08:00:00 -2,6 -3,4 4 2 7 4 N 1026,5 6
18.02.2018 07:00:00 -2,5 -3,2 4 2 - - N 1026,5 5
18.02.2018 06:00:00 -4,4 -5,3 4 2 7 4 N 1026,4 5
18.02.2018 05:00:00 -4,0 -4,8 4 2 4 2 N 1026,4 4,0
18.02.2018 04:00:00 -3,8 -4,5 2 1 - - - 1026,4 0,7
18.02.2018 03:00:00 -4,1 -5,2 4 2 4 2 N 1026,5 3,0
18.02.2018 02:00:00 -3,7 -4,1 4 2 4 2 N 1026,5 4,5
18.02.2018 01:00:00 -3,8 -5,1 4 2 - - N 1026,4 0,2
18.02.2018 00:00:00 -4,4 -5,3 4 2 4 2 N 1026,2 1,5
17.02.2018 23:00:00 -3,9 -4,6 4 2 4 2 N 1026,2 3,8
17.02.2018 22:00:00 -3,1 -3,8 0 0 - - N 1025,7 6
17.02.2018 21:00:00 -1,9 -2,7 4 2 4 2 N 1025,5 6
17.02.2018 20:00:00 -1,3 -2,8 4 2 0 0 N 1025,0 10
17.02.2018 19:00:00 0,4 -2,4 4 2 - - N 1024,7 16
17.02.2018 18:00:00 3,2 -2,0 4 2 18 10 N 1024,0 17
17.02.2018 17:00:00 5,2 -1,3 11 6 18 10 ENE 1023,2 20
17.02.2018 16:00:00 6,1 -1,6 7 4 - - E 1023,0 20
17.02.2018 15:00:00 5,8 -1,0 7 4 14 8 ENE 1022,7 20
17.02.2018 14:00:00 5,6 -1,1 7 4 14 8 ENE 1022,8 18
17.02.2018 13:00:00 5,1 -0,4 7 4 - - ENE 1023,1 18
17.02.2018 12:00:00 3,6 -0,3 7 4 18 10 ENE 1023,2 16
17.02.2018 11:00:00 2,2 -0,7 11 6 14 8 ENE 1023,1 15
17.02.2018 10:00:00 0,8 -0,6 7 4 - - E 1022,7 14
17.02.2018 09:00:00 -0,2 -1,1 7 4 14 8 ENE 1022,7 14
17.02.2018 08:00:00 -0,7 -1,6 7 4 11 6 ENE 1022,6 14
17.02.2018 07:00:00 -0,4 -1,4 7 4 - - N 1022,7 14
17.02.2018 06:00:00 -0,9 -1,7 4 2 11 6 N 1023,3 16
17.02.2018 05:00:00 -0,6 -1,7 4 2 7 4 N 1023,8 13
17.02.2018 04:00:00 -1,3 -1,9 4 2 - - N 1024,4 12
17.02.2018 03:00:00 -1,9 -2,6 4 2 4 2 N 1025,0 11
17.02.2018 02:00:00 -1,7 -2,5 4 2 4 2 N 1025,0 10
17.02.2018 01:00:00 -2,7 -3,1 2 1 - - - 1026,0 8
17.02.2018 00:00:00 -2,4 -3,0 4 2 4 2 N 1026,5 10
16.02.2018 23:00:00 -2,0 -2,5 4 2 4 2 N 1026,5 9
16.02.2018 22:00:00 -1,9 -2,9 4 2 - - N 1027,4 7
16.02.2018 21:00:00 -1,3 -2,5 4 2 4 2 N 1027,2 19
16.02.2018 20:00:00 0,5 -1,5 4 2 4 2 N 1027,5 20
16.02.2018 19:00:00 1,1 -1,7 4 2 - - N 1027,2 20
16.02.2018 18:00:00 4,8 -1,4 4 2 14 8 N 1027,2 20
16.02.2018 17:00:00 6,9 -1,8 7 4 14 8 WSW 1027,0 20
16.02.2018 16:00:00 7,8 -1,1 11 6 - - SW 1027,0 20
16.02.2018 15:00:00 8,3 -1,7 14 8 25 14 WSW 1027,0 20
16.02.2018 14:00:00 8,0 -1,7 11 6 25 14 W 1027,4 20
16.02.2018 13:00:00 7,2 0,7 11 6 - - W 1027,5 20
16.02.2018 12:00:00 6,6 2,3 11 6 18 10 W 1027,4 20
16.02.2018 11:00:00 5,1 2,5 11 6 18 10 WSW 1027,0 15
16.02.2018 10:00:00 3,5 1,7 11 6 - - SW 1026,2 12
16.02.2018 09:00:00 1,3 0,5 11 6 14 8 SW 1025,5 10
16.02.2018 08:00:00 0,3 0,0 11 6 14 8 SW 1024,7 10
16.02.2018 07:00:00 0,5 0,0 7 4 - - SW 1024,0 10
16.02.2018 06:00:00 1,2 0,4 11 6 14 8 SW 1023,5 8
16.02.2018 05:00:00 1,3 0,9 7 4 14 8 SW 1022,6 5
16.02.2018 04:00:00 1,5 1,0 11 6 - - SW 1022,2 7
16.02.2018 03:00:00 2,1 1,5 11 6 14 8 SW 1021,5 9
16.02.2018 02:00:00 2,3 1,5 11 6 14 8 SW 1021,0 10
16.02.2018 01:00:00 2,5 1,8 7 4 - - SW 1020,2 7
16.02.2018 00:00:00 0,9 0,0 7 4 11 6 SW 1019,6 9
15.02.2018 23:00:00 2,4 1,3 11 6 14 8 SW 1018,7 18
15.02.2018 22:00:00 2,7 1,9 7 4 - - WSW 1018,1 14
15.02.2018 21:00:00 3,3 2,7 7 4 11 6 SW 1017,5 16
15.02.2018 20:00:00 4,0 3,2 7 4 11 6 WSW 1016,7 16
15.02.2018 19:00:00 6,0 4,0 7 4 - - W 1015,5 19
15.02.2018 18:00:00 6,8 6,1 4 2 29 16 N 1014,5 11
15.02.2018 17:00:00 8,6 7,2 7 4 18 10 W 1013,5 14
15.02.2018 16:00:00 9,0 7,5 11 6 - - SW 1012,7 14
15.02.2018 15:00:00 8,0 7,0 11 6 22 12 SW 1012,2 14
15.02.2018 14:00:00 7,1 6,5 14 8 25 14 SW 1011,7 14
15.02.2018 13:00:00 6,0 5,4 18 10 - - SW 1011,3 4,0
15.02.2018 12:00:00 5,5 4,8 14 8 29 16 SW 1010,7 19
15.02.2018 11:00:00 4,4 3,7 14 8 25 14 SSW 1010,5 10
15.02.2018 10:00:00 3,5 3,0 11 6 - - SSW 1009,7 6
15.02.2018 09:00:00 2,7 2,5 11 6 22 12 S 1009,7 2,5
15.02.2018 08:00:00 2,4 2,1 7 4 18 10 S 1009,5 1,6
15.02.2018 07:00:00 1,7 1,5 7 4 - - S 1009,5 3,0
15.02.2018 06:00:00 1,5 1,1 7 4 18 10 SSE 1009,8 4,0
15.02.2018 05:00:00 1,2 0,6 7 4 18 10 SE 1009,6 7
15.02.2018 04:00:00 1,2 0,4 11 6 - - SSE 1010,2 7
15.02.2018 03:00:00 1,7 0,2 11 6 36 19 SSE 1010,7 8
15.02.2018 02:00:00 4,0 -2,4 11 6 29 16 S 1011,5 20
15.02.2018 01:00:00 4,1 -3,9 11 6 - - SSE 1011,7 20
15.02.2018 00:00:00 3,9 -4,4 11 6 22 12 SSE 1012,3 20
14.02.2018 23:00:00 3,4 -4,3 7 4 18 10 SSE 1012,7 20
14.02.2018 22:00:00 2,8 -4,0 4 2 - - N 1013,6 20
14.02.2018 21:00:00 2,7 -3,7 7 4 18 10 SE 1014,1 20
14.02.2018 20:00:00 3,0 -3,8 7 4 18 10 SSE 1014,5 20
14.02.2018 19:00:00 3,3 -3,9 7 4 - - SSE 1015,0 20
14.02.2018 18:00:00 3,3 -3,8 4 2 25 14 N 1015,1 20
14.02.2018 17:00:00 4,7 -3,9 11 6 25 14 S 1015,2 20
14.02.2018 16:00:00 6,0 -4,1 11 6 - - SSE 1015,0 20
14.02.2018 15:00:00 6,1 -4,2 11 6 29 16 SSE 1014,7 20
14.02.2018 14:00:00 5,6 -5,0 14 8 29 16 S 1015,0 20
14.02.2018 13:00:00 5,1 -5,0 11 6 - - S 1015,5 20
14.02.2018 12:00:00 3,9 -5,0 11 6 22 12 S 1015,7 20
14.02.2018 11:00:00 2,4 -5,5 7 4 18 10 SSE 1015,7 20
14.02.2018 10:00:00 0,0 -5,8 7 4 - - SSE 1015,7 20
14.02.2018 09:00:00 -2,1 -6,2 4 2 7 4 N 1015,6 20
14.02.2018 08:00:00 -4,3 -7,1 4 2 7 4 N 1015,2 20
14.02.2018 07:00:00 -4,4 -7,4 4 2 - - N 1014,7 15
14.02.2018 06:00:00 -3,7 -6,5 4 2 7 4 N 1014,2 20
14.02.2018 05:00:00 -3,5 -6,6 4 2 11 6 N 1013,8 20
14.02.2018 04:00:00 -3,2 -6,3 4 2 - - N 1013,2 20
14.02.2018 03:00:00 -3,2 -6,3 4 2 11 6 N 1013,0 20
14.02.2018 02:00:00 -2,3 -5,7 4 2 7 4 N 1012,7 20
14.02.2018 01:00:00 -2,2 -5,5 4 2 - - N 1012,3 20

tt = Température de l'air
td = dewpoint
ff = Vitesse du vent
fx = gusts
dd = Direction du vent
ppp = reduced air pressure
vv = visibility

stations d'obs. à proximité